Home > Weather > Celle > Past weeks

Flag for Germany Weather for the Past 2 Weeks in Celle, Lower Saxony, Germany

Now
59 °F

Refreshingly cool.


Feels Like: 58 °F
Forecast: 46 / 71 °F
Wind: 8 mph from Southeast

Location: Celle Airport

Current Time: May 5, 2016 at 12:57:39 PM

Latest Report: May 5, 2016 at 12:20 PM


Visibility: N/A

Pressure: 30.36 "Hg

Humidity: 36%

Dew Point: 32 °F

Location of CelleLocation

Historic Weather in Celle — Graph

°F

Celle Temperature Yesterday

Maximum temperature yesterday: 59 °F (at 4:20 PM)
Minimum temperature yesterday: 34 °F (at 5:20 AM)
Average temperature yesterday: 46 °F

High & Low Weather Summary for the Past Weeks

 TemperatureHumidityPressure
High68 °F (May 2, 4:20 PM)100% (Apr 21, 4:20 AM)30.45 "Hg (Apr 21, 4:20 AM)
Low28 °F (Apr 25, 3:20 AM)28% (May 2, 5:20 PM)29.42 "Hg (Apr 26, 12:20 PM)
Average44 °F73%30.00 "Hg
* Reported Apr 20 11:20 AM — May 5 11:20 AM, Celle, Weather by CustomWeather, © 2016

Note: Actual official high and low records may vary slightly from our data, if they occured in-between our weather recording intervals... More about our weather records

Advertising

Celle Weather History for the Previous 24 Hours

Scroll right to see more
 ConditionsComfort  
Time TempWeatherWind HumidityBarometerVisibility
11:20 AM
Thu, May 5
57 °FRefreshingly cool.7 mph36%30.36 "HgN/A
10:20 AM55 °FRefreshingly cool.6 mph44%30.39 "HgN/A
9:20 AM52 °FCool.5 mph54%30.39 "HgN/A
8:20 AM46 °FCool.5 mph62%30.39 "HgN/A
7:20 AM41 °FQuite cool.3 mph76%30.39 "Hg6 mi
6:20 AM36 °FChilly.2 mph93%30.39 "HgN/A
5:20 AM34 °FChilly.No wind93%30.39 "HgN/A
4:20 AM36 °FChilly.No wind93%30.39 "Hg4 mi
3:20 AM36 °FChilly.1 mph93%30.39 "HgN/A
2:20 AM37 °FChilly.No wind93%30.39 "HgN/A
1:20 AM39 °FChilly.No wind87%30.39 "HgN/A
12:20 AM41 °FQuite cool.1 mph87%30.39 "HgN/A
11:20 PM
Wed, May 4
43 °FQuite cool.No wind76%30.39 "HgN/A
10:20 PM45 °FQuite cool.No wind76%30.39 "HgN/A
9:20 PM48 °FCool.No wind62%30.39 "HgN/A
8:20 PM55 °FPassing clouds.3 mph41%30.36 "HgN/A
7:20 PM57 °FPassing clouds.5 mph36%30.36 "HgN/A
6:20 PM59 °FScattered clouds.3 mph36%30.36 "HgN/A
5:20 PM57 °FScattered clouds.5 mph36%30.36 "HgN/A
4:20 PM59 °FScattered clouds.5 mph34%30.36 "HgN/A
3:20 PM57 °FScattered clouds.6 mph36%30.39 "HgN/A
2:20 PM55 °FScattered clouds.3 mph41%30.39 "HgN/A
1:20 PM55 °FScattered clouds.6 mph47%30.39 "HgN/A
12:20 PM52 °FScattered clouds.6 mph50%30.39 "HgN/A
Weather by CustomWeather, © 2016

See weather overviewHow to use our weather pages